Location: Unspecified
(0.0000°N, 0.0000°E)
Time: 22:28:46
(UTC+00:00)

deb Blok Kosmos - Pass Details

Date: 10 December 2025
Orbit: 1262 x 1713 km, 55.4° (Epoch: 19 January)

Event Time Altitude Azimuth Distance (km) Brightness Sun altitude
Rises 21:11:17 0° 220° (SW) 4,540 ? -44.5°
Reaches altitude 10° 21:14:12 10° 224° (SW) 3,619 ? -45.1°
Enters shadow 21:20:26 46° 250° (WSW) 2,001 ? -46.4°
